{"data":{"norad_id":56917,"intl_designator":"2023-083AT","name":"STARLINK-5971","alt_names":[],"object_type":"PAYLOAD","status":"ACTIVE","operator":null,"country":"US","launch_date":"2023-06-12","launch_site_code":"AFETR","launch_vehicle":null,"mission":null,"orbit_class":"UNKNOWN","rcs_meters":null,"size_class":null,"mass_kg":null,"dimensions":null,"purposes":["comms"],"wikipedia_slug":null,"has_3d_model":false,"image_url":null,"decayed_at":null,"tle_current":{"epoch":"2026-05-24T23:32:50.807040Z","epoch_age_seconds":79978,"freshness":"FRESH","line1":"1 56917U 23083AT  26144.98114360  .00000014  00000+0  10055-4 0  9992","line2":"2 56917  43.0066   0.0250 0001350 268.5943  91.4754 15.27564244163462","mean_motion":15.27564244,"eccentricity":0.000135,"inclination_deg":43.0066,"raan_deg":0.025,"arg_perigee_deg":268.5943,"mean_anomaly_deg":91.4754,"bstar":1.0055e-5,"rev_number":16346,"period_min":94.267721024243,"perigee_km":482.17000908516,"apogee_km":484.02254206957,"semimajor_km":6861.2332755774,"source":"CELESTRAK","updated_at":"2026-05-25T13:38:18.205119Z"}}}